Погода в Тистеде

Дания     56°57′18″N   8°41′50″E
темп.,
°C
ветер,
м/с
пор.,
м/с
влажн.,
%
обл.,
%
осадки,
мм/ч
давл.,
гПа
погр.,
м
15 апреля, чт
чт1523:00+4св22620 0.0 103165
02:00+3всв23660 0.0 1032112
05:00+3всв23695 0.0 1033108
08:00+4ссв236568 0.0 1033146
11:00+7ссв34545 0.0 1034603
14:00+8ссв545816 0.0 1034749
17:00+7ссв566162 0.0 1033516
20:00+6ссв46707 0.0 1033184
16 апреля, пт
пт1623:00+5с46785 0.0 1033167
02:00+5с46784 0.0 1033149
05:00+5ссв46775 0.0 1032143
08:00+6св35755 0.0 1032159
11:00+8св57610 0.0 1032614
14:00+8ссв67562 0.0 1032761
17:00+8ссв67612 0.0 1031551
20:00+6ссв477313 0.0 1031222
17 апреля, сб
сб1723:00+5с4777100 0.0 1031146
02:00+6с4780100 0.0 1030116
05:00+6св4777100 0.0 1029146
08:00+6св41072100 0.0 1030418
11:00+6св797995 0.0 1030888
14:00+6ссв91178100 0.1 1029825
17:00+7св7975100 0.0 1028702
20:00+6всв5884100 0.0 1028549
18 апреля, вс
вс1823:00+6св468599 0.0 1028272
02:00+6всв2385100 0.0 102788
05:00+6св1283100 0.0 102619
08:00+6всв2385100 0.1 102596
11:00+8всв348093 0.0 1025237
14:00+9всв347474 0.0 1025452
17:00+10всв337568 0.0 1024325
20:00+8св228475 0.1 102466
19 апреля, пн
пн1923:00+8св228480 0.0 102344
02:00+8св3386100 0.0 102257
05:00+8ссв3491100 0.2 102174
08:00+8в4696100 0.8 1021191
11:00+10вюв468465 0.1 1020440
14:00+10в567863 0.6 1020556
17:00+10вюв467488 0.4 1019482
20:00+9вюв358280 0.8 101897